Weather History for Ironwood, MI

Change the Weather History Date:

Monday, February 18, 2013

  Actual Average Record
Temperature  
Mean Temperature 24 °F -  
Max Temperature 30 °F 26 °F 50 °F (1997)
Min Temperature 21 °F 10 °F -20 °F (2006)
Degree Days  
Heating Degree Days 40    
Moisture  
Dew Point 14 °F    
Average Humidity 65    
Maximum Humidity 69    
Minimum Humidity 58    
Precipitation  
Precipitation 0.00 in - - ()
Sea Level Pressure  
Sea Level Pressure 29.57 in    
Wind  
Wind Speed 10 mph (SSE)    
Max Wind Speed 21 mph    
Max Gust Speed 32 mph    
Visibility 9 miles    
Events      
Averages and records for this station are not official NWS values.
T = Trace of Precipitation, MM = Missing Value Source: NWS Daily Summary

Daily Weather History Graph

Daily Weather History Graph

Search for Another Location

Airport:

Trip Planner

Search our weather history database for the weather conditions in past years. The results will help you decide how hot, cold, wet, or windy it might be!

Date:

Astronomy

Feb. 18, 2013 Rise Set
Actual Time 6:58 AM CST 5:30 PM CST
Civil Twilight 6:27 AM CST 6:01 PM CST
Nautical Twilight 5:52 AM CST 6:36 PM CST
Astronomical Twilight 5:17 AM CST 7:11 PM CST
Moon 11:06 AM CST (2/18) 1:48 AM CST (2/18)
Length of Visible Light 11h 33m
Length of Day
10h 32m
First Quarter, 58% of the Moon is Illuminated
Feb 18
First Quarter
Feb 25
Full
Mar 4
Last Quarter
Mar 11
New
Mar 19
First Quarter

Hourly Weather History & Observations

Time (CST) Temp. Windchill Dew Point Humidity Pressure Visibility Wind Dir Wind Speed Gust Speed Precip Events Conditions
12:15 AM 21.2 °F 12.6 °F 8.6 °F 58% 29.71 in 10.0 mi SSE 6.9 mph 18.4 mph N/A   Mostly Cloudy
12:35 AM 21.2 °F 6.0 °F 10.4 °F 63% 29.69 in 5.0 mi South 19.6 mph 32.2 mph N/A   Mostly Cloudy
12:55 AM 21.2 °F 7.3 °F 8.6 °F 58% 29.68 in 6.0 mi SSE 16.1 mph 27.6 mph N/A   Overcast
1:15 AM 21.2 °F 6.4 °F 10.4 °F 63% 29.66 in 5.0 mi South 18.4 mph 29.9 mph N/A   Overcast
1:35 AM 21.2 °F 5.6 °F 10.4 °F 63% 29.65 in 5.0 mi SSE 20.7 mph 29.9 mph N/A   Mostly Cloudy
1:55 AM 21.2 °F 6.8 °F 10.4 °F 63% 29.63 in 5.0 mi SSE 17.3 mph 27.6 mph N/A   Partly Cloudy
2:15 AM 21.2 °F 8.3 °F 10.4 °F 63% 29.63 in 8.0 mi SSE 13.8 mph 24.2 mph N/A   Clear
2:35 AM 21.2 °F 11.7 °F 10.4 °F 63% 29.63 in 9.0 mi SE 8.1 mph 19.6 mph N/A   Clear
2:55 AM 21.2 °F 13.6 °F 12.2 °F 68% 29.62 in 10.0 mi SE 5.8 mph - N/A   Scattered Clouds
3:15 AM 21.2 °F 13.6 °F 12.2 °F 68% 29.61 in 10.0 mi SE 5.8 mph 19.6 mph N/A   Mostly Cloudy
3:35 AM 21.2 °F 7.8 °F 12.2 °F 68% 29.59 in 10.0 mi SSE 15.0 mph 25.3 mph N/A   Mostly Cloudy
3:55 AM 23.0 °F 13.1 °F 12.2 °F 63% 29.60 in 10.0 mi SSE 9.2 mph 16.1 mph N/A   Scattered Clouds
4:15 AM 23.0 °F 15.8 °F 12.2 °F 63% 29.60 in 10.0 mi South 5.8 mph 17.3 mph N/A   Overcast
4:35 AM 24.8 °F 15.3 °F 12.2 °F 59% 29.59 in 10.0 mi SE 9.2 mph 20.7 mph N/A   Overcast
4:55 AM 24.8 °F 14.6 °F 12.2 °F 59% 29.58 in 10.0 mi SSE 10.4 mph 24.2 mph N/A   Mostly Cloudy
5:15 AM 24.8 °F 12.4 °F 12.2 °F 59% 29.58 in 10.0 mi SSE 15.0 mph 23.0 mph N/A   Partly Cloudy
5:35 AM 24.8 °F 14.6 °F 12.2 °F 59% 29.57 in 10.0 mi SSE 10.4 mph 19.6 mph N/A   Partly Cloudy
5:55 AM 24.8 °F 20.5 °F 14.0 °F 64% 29.57 in 10.0 mi ESE 3.5 mph 17.3 mph N/A   Clear
6:15 AM 24.8 °F 15.3 °F 14.0 °F 64% 29.55 in 10.0 mi ESE 9.2 mph - N/A   Clear
6:35 AM 24.8 °F 20.5 °F 14.0 °F 64% 29.55 in 10.0 mi East 3.5 mph - N/A   Clear
6:55 AM 24.8 °F 19.1 °F 15.8 °F 69% 29.56 in 10.0 mi SE 4.6 mph - N/A   Partly Cloudy
7:15 AM 24.8 °F 19.1 °F 15.8 °F 69% 29.55 in 10.0 mi SE 4.6 mph - N/A   Mostly Cloudy
7:35 AM 24.8 °F 17.9 °F 15.8 °F 69% 29.55 in 10.0 mi SE 5.8 mph - N/A   Overcast
7:55 AM 24.8 °F 15.3 °F 15.8 °F 69% 29.54 in 10.0 mi SE 9.2 mph - N/A   Overcast
8:15 AM 24.8 °F 16.9 °F 15.8 °F 69% 29.52 in 10.0 mi SSE 6.9 mph 17.3 mph N/A   Overcast
8:35 AM 24.8 °F 14.6 °F 15.8 °F 69% 29.52 in 10.0 mi SSE 10.4 mph - N/A   Overcast
8:55 AM 26.6 °F 20.0 °F 17.6 °F 69% 29.52 in 10.0 mi SSE 5.8 mph - N/A   Overcast
9:15 AM 26.6 °F - 17.6 °F 69% 29.51 in 10.0 mi Calm Calm - N/A   Overcast
9:35 AM 26.6 °F 21.2 °F 17.6 °F 69% 29.51 in 10.0 mi SSE 4.6 mph 16.1 mph N/A   Overcast
9:55 AM 26.6 °F - 17.6 °F 69% 29.51 in 10.0 mi Calm Calm - N/A   Overcast
10:15 AM 26.6 °F 22.6 °F 17.6 °F 69% 29.50 in 10.0 mi South 3.5 mph - N/A   Overcast
10:35 AM 28.4 °F 22.2 °F 17.6 °F 64% 29.50 in 10.0 mi SE 5.8 mph - N/A   Overcast
10:55 AM 28.4 °F - 17.6 °F 64% 29.50 in 10.0 mi Calm Calm - N/A   Overcast
11:15 AM 28.4 °F 23.3 °F 19.4 °F 69% 29.49 in 10.0 mi SSE 4.6 mph - N/A   Overcast
11:35 AM 28.4 °F 21.2 °F 19.4 °F 69% 29.48 in 10.0 mi South 6.9 mph - N/A   Overcast
11:55 AM 28.4 °F 23.3 °F 19.4 °F 69% 29.48 in 10.0 mi SW 4.6 mph - N/A   Overcast
12:15 PM 30.2 °F 24.3 °F 19.4 °F 64% 29.48 in 10.0 mi SSW 5.8 mph - N/A   Overcast